Oakland, MD

9:48 PM EDT on October 22, 2017 (GMT -0400)
Oakland

Weather History for K2G4 - January, 2014

Change the Weather History Date:

Wednesday, January 1, 2014

  Actual Average (KMGW) Record (KMGW)
Temperature  
Mean Temperature 29 °F -  
Max Temperature 37 °F 40 °F 73 °F (1952)
Min Temperature 21 °F 25 °F -4 °F (1968)
Degree Days  
Heating Degree Days 36    
Moisture  
Dew Point 16 °F    
Average Humidity 62    
Maximum Humidity 86    
Minimum Humidity 38    
Precipitation  
Precipitation 0.00 in - - ()
Sea Level Pressure  
Sea Level Pressure 30.13 in    
Wind  
Wind Speed 9 mph (SSW)    
Max Wind Speed 13 mph    
Max Gust Speed 20 mph    
Visibility 10 miles    
Events      
Averages and records for this station are not official NWS values.
T = Trace of Precipitation, MM = Missing Value Source: NWS Daily Summary

Daily Weather History Graph

Daily Weather History Graph

Search for Another Location

Airport or City:

Trip Planner

Search our weather history database for the weather conditions in past years. The results will help you decide how hot, cold, wet, or windy it might be!

Date:

Astronomy

Jan. 01, 2014 Rise Set
Actual Time 7:38 AM EST 5:04 PM EST
Civil Twilight 7:07 AM EST 5:34 PM EST
Nautical Twilight 6:34 AM EST 6:08 PM EST
Astronomical Twilight 6:01 AM EST 6:40 PM EST
Moon 7:27 AM EST (1/1) 5:46 PM EST (1/1)
Length of Visible Light 10h 26m
Length of Day
9h 26m
New Moon, 0% of the Moon is Illuminated
Jan 1
New Moon
Jan 7
First Quarter
Jan 15
Full
Jan 24
Last Quarter
Jan 30
New

Hourly Weather History & Observations

Time (EST) Temp. Windchill Dew Point Humidity Pressure Visibility Wind Dir Wind Speed Gust Speed Precip Events Conditions
12:00 AM 21.2 °F 10.1 °F 15.8 °F 80% 30.16 in 10.0 mi WSW 10.4 mph 17.3 mph N/A   Overcast
12:20 AM 23.0 °F 13.1 °F 15.8 °F 74% 30.16 in 10.0 mi West 9.2 mph 18.4 mph N/A   Overcast
12:40 AM 21.2 °F 9.5 °F 15.8 °F 80% 30.17 in 10.0 mi West 11.5 mph 18.4 mph N/A   Overcast
1:00 AM 21.2 °F 8.9 °F 15.8 °F 80% 30.16 in 10.0 mi West 12.7 mph 17.3 mph N/A   Scattered Clouds
1:20 AM 21.2 °F 11.7 °F 15.8 °F 80% 30.17 in 10.0 mi West 8.1 mph - N/A   Clear
1:40 AM 21.2 °F 12.6 °F 15.8 °F 80% 30.17 in 10.0 mi West 6.9 mph - N/A   Scattered Clouds
2:00 AM 21.2 °F 9.5 °F 15.8 °F 80% 30.17 in 10.0 mi West 11.5 mph 19.6 mph N/A   Mostly Cloudy
2:20 AM 21.2 °F 11.7 °F 15.8 °F 80% 30.19 in 10.0 mi WSW 8.1 mph - N/A   Mostly Cloudy
2:40 AM 21.2 °F 12.6 °F 15.8 °F 80% 30.19 in 10.0 mi West 6.9 mph - N/A   Mostly Cloudy
3:00 AM 21.2 °F 10.1 °F 17.6 °F 86% 30.19 in 10.0 mi West 10.4 mph 16.1 mph N/A   Overcast
3:20 AM 21.2 °F 9.5 °F 17.6 °F 86% 30.20 in 10.0 mi WSW 11.5 mph 16.1 mph N/A   Overcast
3:40 AM 21.2 °F 10.9 °F 17.6 °F 86% 30.20 in 10.0 mi WSW 9.2 mph - N/A   Overcast
4:00 AM 21.2 °F 10.9 °F 17.6 °F 86% 30.19 in 10.0 mi WSW 9.2 mph - N/A   Overcast
4:20 AM 23.0 °F 13.1 °F 17.6 °F 80% 30.19 in 10.0 mi West 9.2 mph - N/A   Overcast
4:40 AM 21.2 °F 10.9 °F 17.6 °F 86% 30.19 in 10.0 mi West 9.2 mph - N/A   Mostly Cloudy
5:00 AM 21.2 °F 11.7 °F 17.6 °F 86% 30.19 in 10.0 mi West 8.1 mph - N/A   Clear
5:20 AM 21.2 °F 10.9 °F 17.6 °F 86% 30.19 in 10.0 mi WSW 9.2 mph 16.1 mph N/A   Clear
5:40 AM 21.2 °F 10.9 °F 17.6 °F 86% 30.19 in 10.0 mi WSW 9.2 mph - N/A   Clear
6:00 AM 21.2 °F 10.9 °F 17.6 °F 86% 30.19 in 10.0 mi WSW 9.2 mph - N/A   Clear
6:20 AM 21.2 °F 12.6 °F 17.6 °F 86% 30.19 in 10.0 mi WSW 6.9 mph - N/A   Clear
6:40 AM 21.2 °F 11.7 °F 17.6 °F 86% 30.18 in 10.0 mi WSW 8.1 mph - N/A   Clear
7:00 AM 21.2 °F 12.6 °F 17.6 °F 86% 30.19 in 10.0 mi SW 6.9 mph - N/A   Clear
7:20 AM 21.2 °F 12.6 °F 17.6 °F 86% 30.19 in 10.0 mi SW 6.9 mph - N/A   Clear
7:35 AM 21.2 °F 12.6 °F 17.6 °F 86% 30.19 in 10.0 mi SW 6.9 mph - N/A   Clear
7:55 AM 21.2 °F 11.7 °F 17.6 °F 86% 30.19 in 10.0 mi SW 8.1 mph - N/A   Clear
8:20 AM 21.2 °F 10.1 °F 17.6 °F 86% 30.19 in 10.0 mi SSW 10.4 mph - N/A   Clear
8:40 AM 23.0 °F 12.4 °F 17.6 °F 80% 30.19 in 10.0 mi SSW 10.4 mph - N/A   Clear
9:00 AM 26.6 °F 16.2 °F 17.6 °F 69% 30.20 in 10.0 mi SSW 11.5 mph 17.3 mph N/A   Clear
9:20 AM 26.6 °F 16.2 °F 17.6 °F 69% 30.20 in 10.0 mi SSW 11.5 mph - N/A   Clear
9:40 AM 28.4 °F 18.5 °F 17.6 °F 64% 30.20 in 10.0 mi SW 11.5 mph 17.3 mph N/A   Clear
10:00 AM 28.4 °F 18.5 °F 17.6 °F 64% 30.21 in 10.0 mi SW 11.5 mph 18.4 mph N/A   Clear
10:20 AM 30.2 °F 21.3 °F 15.8 °F 55% 30.22 in 10.0 mi SW 10.4 mph - N/A   Clear
10:45 AM 32.0 °F 24.8 °F 15.8 °F 51% 30.22 in 10.0 mi SW 8.1 mph - N/A   Clear
11:05 AM 32.0 °F 23.0 °F 15.8 °F 51% 30.21 in 10.0 mi SW 11.5 mph - N/A   Clear
11:25 AM 32.0 °F 24.2 °F 14.0 °F 48% 30.20 in 10.0 mi SW 9.2 mph 17.3 mph N/A   Clear
11:45 AM 32.0 °F 25.6 °F 14.0 °F 48% 30.19 in 10.0 mi WSW 6.9 mph - N/A   Clear
12:05 PM 33.8 °F 26.4 °F 14.0 °F 44% 30.19 in 10.0 mi WSW 9.2 mph - N/A   Clear
12:25 PM 33.8 °F 28.6 °F 14.0 °F 44% 30.18 in 10.0 mi SW 5.8 mph 16.1 mph N/A   Clear
12:45 PM 32.0 °F 24.8 °F 14.0 °F 48% 30.16 in 10.0 mi SW 8.1 mph - N/A   Clear
1:05 PM 32.0 °F 26.4 °F 14.0 °F 48% 30.15 in 10.0 mi WSW 5.8 mph - N/A   Clear
1:25 PM 33.8 °F 27.7 °F 14.0 °F 44% 30.15 in 10.0 mi WSW 6.9 mph - N/A   Clear
1:45 PM 33.8 °F 27.7 °F 12.2 °F 41% 30.14 in 10.0 mi WSW 6.9 mph - N/A   Mostly Cloudy
2:05 PM 33.8 °F 28.6 °F 10.4 °F 38% 30.12 in 10.0 mi West 5.8 mph - N/A   Scattered Clouds
2:25 PM 35.6 °F 29.9 °F 12.2 °F 38% 30.11 in 10.0 mi WSW 6.9 mph - N/A   Clear
2:45 PM 35.6 °F 31.7 °F 14.0 °F 41% 30.11 in 10.0 mi WSW 4.6 mph - N/A   Clear
3:05 PM 33.8 °F - 12.2 °F 41% 30.11 in 10.0 mi Calm Calm - N/A   Scattered Clouds
3:25 PM 35.6 °F - 14.0 °F 41% 30.10 in 10.0 mi Calm Calm - N/A   Mostly Cloudy
3:45 PM 35.6 °F 32.8 °F 14.0 °F 41% 30.10 in 10.0 mi South 3.5 mph - N/A   Overcast
4:05 PM 37.4 °F 34.9 °F 14.0 °F 38% 30.09 in 10.0 mi South 3.5 mph - N/A   Overcast
4:25 PM 37.4 °F 33.8 °F 14.0 °F 38% 30.08 in 10.0 mi South 4.6 mph - N/A   Mostly Cloudy
4:45 PM 35.6 °F 31.7 °F 14.0 °F 41% 30.08 in 10.0 mi SSE 4.6 mph - N/A   Scattered Clouds
5:05 PM 33.8 °F 28.6 °F 14.0 °F 44% 30.08 in 10.0 mi SE 5.8 mph - N/A   Scattered Clouds
5:25 PM 33.8 °F - 14.0 °F 44% 30.07 in 10.0 mi Calm Calm - N/A   Clear
5:45 PM 33.8 °F 30.8 °F 12.2 °F 41% 30.07 in 10.0 mi SSE 3.5 mph - N/A   Clear
6:05 PM 33.8 °F 27.7 °F 14.0 °F 44% 30.07 in 10.0 mi ESE 6.9 mph - N/A   Clear
6:25 PM 32.0 °F 25.6 °F 15.8 °F 51% 30.06 in 10.0 mi ESE 6.9 mph - N/A   Clear
6:45 PM 32.0 °F 24.8 °F 15.8 °F 51% 30.05 in 10.0 mi ESE 8.1 mph - N/A   Clear
7:05 PM 32.0 °F 24.8 °F 15.8 °F 51% 30.05 in 10.0 mi ESE 8.1 mph - N/A   Clear
7:25 PM 32.0 °F 24.2 °F 14.0 °F 48% 30.05 in 10.0 mi ESE 9.2 mph - N/A   Clear
7:45 PM 32.0 °F 24.2 °F 14.0 °F 48% 30.05 in 10.0 mi ESE 9.2 mph - N/A   Clear
8:05 PM 32.0 °F 23.6 °F 15.8 °F 51% 30.05 in 10.0 mi ESE 10.4 mph - N/A   Clear
8:25 PM 32.0 °F 24.8 °F 15.8 °F 51% 30.05 in 10.0 mi SE 8.1 mph - N/A   Clear
8:45 PM 32.0 °F 24.8 °F 17.6 °F 55% 30.04 in 10.0 mi SE 8.1 mph - N/A   Scattered Clouds
9:05 PM 30.2 °F 22.6 °F 17.6 °F 60% 30.03 in 10.0 mi SE 8.1 mph - N/A   Scattered Clouds
9:25 PM 32.0 °F 24.8 °F 17.6 °F 55% 30.02 in 10.0 mi SE 8.1 mph - N/A   Scattered Clouds
9:45 PM 30.2 °F 21.9 °F 17.6 °F 60% 30.01 in 10.0 mi SE 9.2 mph - N/A   Clear
10:05 PM 32.0 °F 24.8 °F 17.6 °F 55% 30.00 in 10.0 mi SE 8.1 mph - N/A   Scattered Clouds
10:25 PM 32.0 °F 25.6 °F 17.6 °F 55% 30.00 in 10.0 mi SE 6.9 mph - N/A   Scattered Clouds
10:45 PM 30.2 °F 23.4 °F 17.6 °F 60% 29.99 in 10.0 mi SSE 6.9 mph - N/A   Scattered Clouds
11:05 PM 30.2 °F 23.4 °F 17.6 °F 60% 29.99 in 10.0 mi SSE 6.9 mph - N/A   Clear
11:25 PM 30.2 °F 23.4 °F 17.6 °F 60% 29.99 in 10.0 mi SSE 6.9 mph - N/A   Clear
11:45 PM 32.0 °F 26.4 °F 17.6 °F 55% 29.98 in 10.0 mi South 5.8 mph - N/A   Clear